SHT9L EGPH-EGLL

Flight info

Callsign SHT9L
Flight time 0h 59m
Altitude 33000
Route GOSAM P600 FENIK L612 NAVSO DCT AKOMU DCT VAMEB DCT NUGRA
Aircraft A320/M-SDE3FGHIRWY/LB1

Departure

Time 2026-05-06 19:50
Airport Edinburgh Airport (EGPH)

Arrival

Time 2026-05-06 20:49
Airport London Heathrow Airport (EGLL)
Time Latitude Longitude Altitude Speed Heading
2026-05-06 19:21 55.94878 -3.36545 107 ft 0 kts 149°
2026-05-06 19:27 55.94879 -3.36545 107 ft 0 kts 149°
2026-05-06 19:33 55.94879 -3.36546 106 ft 0 kts 149°
2026-05-06 19:38 55.94882 -3.36549 106 ft 2 kts 149°
2026-05-06 19:39 55.94896 -3.36564 104 ft 2 kts 147°
2026-05-06 19:39 55.94910 -3.36579 106 ft 2 kts 149°
2026-05-06 19:39 55.94924 -3.36594 105 ft 2 kts 152°
2026-05-06 19:39 55.94939 -3.36600 106 ft 2 kts 208°
2026-05-06 19:40 55.94952 -3.36582 103 ft 2 kts 236°
2026-05-06 19:40 55.94960 -3.36557 106 ft 2 kts 243°
2026-05-06 19:40 55.94962 -3.36549 106 ft 0 kts 238°
2026-05-06 19:41 55.94958 -3.36562 106 ft 5 kts 239°
2026-05-06 19:42 55.94930 -3.36648 107 ft 10 kts 238°
2026-05-06 19:42 55.94892 -3.36764 106 ft 12 kts 254°
2026-05-06 19:42 55.94926 -3.36890 103 ft 14 kts 261°
2026-05-06 19:42 55.94871 -3.37054 105 ft 16 kts 238°
2026-05-06 19:43 55.94808 -3.37239 105 ft 19 kts 239°
2026-05-06 19:43 55.94742 -3.37436 109 ft 18 kts 239°
2026-05-06 19:43 55.94675 -3.37634 113 ft 19 kts 239°
2026-05-06 19:43 55.94604 -3.37841 113 ft 21 kts 238°
2026-05-06 19:44 55.94542 -3.38023 112 ft 16 kts 238°
2026-05-06 19:44 55.94479 -3.38212 111 ft 19 kts 239°
2026-05-06 19:44 55.94418 -3.38393 113 ft 16 kts 239°
2026-05-06 19:44 55.94376 -3.38518 113 ft 6 kts 239°
2026-05-06 19:45 55.94370 -3.38536 114 ft 3 kts 239°
2026-05-06 19:45 55.94350 -3.38594 117 ft 10 kts 238°
2026-05-06 19:45 55.94313 -3.38701 116 ft 11 kts 238°
2026-05-06 19:45 55.94290 -3.38766 117 ft 3 kts 239°
2026-05-06 19:46 55.94283 -3.38790 118 ft 3 kts 243°
2026-05-06 19:46 55.94279 -3.38834 120 ft 4 kts 271°
2026-05-06 19:46 55.94293 -3.38869 116 ft 4 kts 316°
2026-05-06 19:46 55.94321 -3.38902 118 ft 7 kts 328°
2026-05-06 19:47 55.94329 -3.38911 119 ft 0 kts 328°
2026-05-06 19:47 55.94337 -3.38919 118 ft 4 kts 328°
2026-05-06 19:47 55.94379 -3.38962 115 ft 9 kts 336°
2026-05-06 19:48 55.94434 -3.38910 119 ft 10 kts 57°
2026-05-06 19:48 55.94439 -3.38895 116 ft 0 kts 58°
2026-05-06 19:49 55.94444 -3.38882 115 ft 7 kts 58°
2026-05-06 19:49 55.94624 -3.38349 113 ft 94 kts 57°
2026-05-06 19:49 55.95085 -3.36976 146 ft 157 kts 65°
2026-05-06 19:50 55.95653 -3.35279 922 ft 162 kts 62°
2026-05-06 19:50 55.96333 -3.33620 1642 ft 171 kts 47°
2026-05-06 19:50 55.97319 -3.32194 1888 ft 196 kts 28°
2026-05-06 19:50 55.98228 -3.31795 2050 ft 214 kts 359°
2026-05-06 19:51 55.99657 -3.32801 2345 ft 236 kts 314°
2026-05-06 19:51 56.00585 -3.35344 2773 ft 255 kts 290°
2026-05-06 19:51 56.01146 -3.38398 3575 ft 261 kts 282°
2026-05-06 19:51 56.01564 -3.41550 4544 ft 260 kts 276°
2026-05-06 19:52 56.01580 -3.44769 5496 ft 261 kts 262°
2026-05-06 19:52 56.01197 -3.47946 6270 ft 262 kts 252°
2026-05-06 19:52 56.00691 -3.51094 7147 ft 265 kts 254°
2026-05-06 19:52 56.00225 -3.54305 7993 ft 268 kts 255°
2026-05-06 19:53 55.99776 -3.57544 8843 ft 270 kts 256°
2026-05-06 19:53 55.99322 -3.60817 9683 ft 273 kts 256°
2026-05-06 19:53 55.98860 -3.64134 10372 ft 281 kts 255°
2026-05-06 19:53 55.98361 -3.67656 10583 ft 304 kts 255°
2026-05-06 19:54 55.97824 -3.71401 10790 ft 324 kts 255°
2026-05-06 19:54 55.97256 -3.75350 11320 ft 331 kts 255°
2026-05-06 19:54 55.96681 -3.79353 12006 ft 334 kts 255°
2026-05-06 19:54 55.96098 -3.83390 12693 ft 337 kts 255°
2026-05-06 19:55 55.95507 -3.87455 13385 ft 340 kts 255°
2026-05-06 19:55 55.94909 -3.91565 14048 ft 343 kts 255°
2026-05-06 19:55 55.94305 -3.95691 14651 ft 345 kts 255°
2026-05-06 19:55 55.93449 -3.99706 15265 ft 348 kts 243°
2026-05-06 19:56 55.92072 -4.03270 15841 ft 352 kts 230°
2026-05-06 19:56 55.90224 -4.06172 16407 ft 357 kts 217°
2026-05-06 19:56 55.88161 -4.08680 16976 ft 360 kts 217°
2026-05-06 19:56 55.86101 -4.11191 17536 ft 364 kts 217°
2026-05-06 19:57 55.84007 -4.13747 18115 ft 367 kts 217°
2026-05-06 19:57 55.81890 -4.16334 18639 ft 370 kts 217°
2026-05-06 19:57 55.79763 -4.18939 19153 ft 373 kts 217°
2026-05-06 19:57 55.77617 -4.21559 19659 ft 376 kts 216°
2026-05-06 19:58 55.75272 -4.23705 20183 ft 383 kts 204°
2026-05-06 19:58 55.72671 -4.24931 20669 ft 392 kts 192°
2026-05-06 19:58 55.69911 -4.25108 21119 ft 402 kts 179°
2026-05-06 19:58 55.67137 -4.24150 21533 ft 412 kts 166°
2026-05-06 19:59 55.64447 -4.22234 21955 ft 420 kts 156°
2026-05-06 19:59 55.61875 -4.19724 22378 ft 425 kts 154°
2026-05-06 19:59 55.59283 -4.17166 22800 ft 428 kts 155°
2026-05-06 19:59 55.56671 -4.14611 23223 ft 431 kts 155°
2026-05-06 20:00 55.54031 -4.12045 23632 ft 435 kts 155°
2026-05-06 20:00 55.51373 -4.09467 23972 ft 438 kts 155°
2026-05-06 20:00 55.48694 -4.06864 24339 ft 441 kts 155°
2026-05-06 20:00 55.46031 -4.04276 24680 ft 444 kts 155°
2026-05-06 20:01 55.43321 -4.01648 24992 ft 447 kts 154°
2026-05-06 20:01 55.40582 -3.98991 25346 ft 449 kts 154°
2026-05-06 20:01 55.37832 -3.96327 25688 ft 452 kts 154°
2026-05-06 20:01 55.35075 -3.93662 26027 ft 454 kts 154°
2026-05-06 20:02 55.32297 -3.90982 26360 ft 457 kts 154°
2026-05-06 20:02 55.29503 -3.88289 26709 ft 459 kts 154°
2026-05-06 20:02 55.26692 -3.85584 27055 ft 462 kts 153°
2026-05-06 20:02 55.23866 -3.82871 27361 ft 465 kts 153°
2026-05-06 20:03 55.21006 -3.80161 27694 ft 468 kts 154°
2026-05-06 20:03 55.18108 -3.77554 28009 ft 470 kts 155°
2026-05-06 20:03 55.15168 -3.75028 28342 ft 472 kts 156°
2026-05-06 20:03 55.12201 -3.72544 28713 ft 473 kts 156°
2026-05-06 20:04 55.09230 -3.70073 29172 ft 472 kts 156°
2026-05-06 20:04 55.06268 -3.67594 29639 ft 472 kts 155°
2026-05-06 20:04 55.03307 -3.65092 30087 ft 471 kts 155°
2026-05-06 20:04 55.00396 -3.62613 30464 ft 471 kts 155°
2026-05-06 20:05 54.97445 -3.60088 30833 ft 472 kts 155°
2026-05-06 20:05 54.94501 -3.57569 31171 ft 472 kts 154°
2026-05-06 20:05 54.91547 -3.55048 31565 ft 472 kts 154°
2026-05-06 20:05 54.88598 -3.52540 31949 ft 472 kts 154°
2026-05-06 20:06 54.85641 -3.50035 32327 ft 473 kts 154°
2026-05-06 20:06 54.82680 -3.47535 32708 ft 473 kts 154°
2026-05-06 20:06 54.79714 -3.45035 32983 ft 474 kts 154°
2026-05-06 20:06 54.76726 -3.42521 33031 ft 480 kts 154°
2026-05-06 20:07 54.70720 -3.37476 33033 ft 484 kts 154°
2026-05-06 20:07 54.64670 -3.32399 33028 ft 482 kts 153°
2026-05-06 20:08 54.58623 -3.27352 33029 ft 482 kts 153°
2026-05-06 20:08 54.52582 -3.22327 33029 ft 482 kts 153°
2026-05-06 20:09 54.46543 -3.17311 33039 ft 482 kts 153°
2026-05-06 20:09 54.40540 -3.12344 33054 ft 481 kts 153°
2026-05-06 20:10 54.34512 -3.07382 33055 ft 480 kts 153°
2026-05-06 20:10 54.28489 -3.02431 33036 ft 479 kts 153°
2026-05-06 20:11 54.22472 -2.97506 33037 ft 479 kts 153°
2026-05-06 20:11 54.16450 -2.92610 33055 ft 478 kts 154°
2026-05-06 20:12 54.10367 -2.88018 33052 ft 477 kts 156°
2026-05-06 20:12 54.04228 -2.83690 33047 ft 477 kts 156°
2026-05-06 20:13 53.98024 -2.79709 33042 ft 477 kts 162°
2026-05-06 20:13 53.91689 -2.76344 33040 ft 476 kts 162°
2026-05-06 20:14 53.85408 -2.73009 33043 ft 475 kts 162°
2026-05-06 20:14 53.79092 -2.69692 33051 ft 475 kts 162°
2026-05-06 20:15 53.72785 -2.66382 33048 ft 475 kts 162°
2026-05-06 20:15 53.66480 -2.63072 33052 ft 473 kts 162°
2026-05-06 20:16 53.60198 -2.59800 33055 ft 472 kts 162°
2026-05-06 20:16 53.53916 -2.56536 33062 ft 471 kts 162°
2026-05-06 20:17 53.47654 -2.53280 33054 ft 470 kts 162°
2026-05-06 20:17 53.41403 -2.50043 33072 ft 470 kts 162°
2026-05-06 20:18 53.35148 -2.46818 33073 ft 469 kts 162°
2026-05-06 20:18 53.28943 -2.43636 33066 ft 469 kts 162°
2026-05-06 20:19 53.22700 -2.40436 33047 ft 469 kts 162°
2026-05-06 20:19 53.16463 -2.37242 33066 ft 468 kts 162°
2026-05-06 20:20 53.10237 -2.34067 33037 ft 466 kts 162°
2026-05-06 20:20 53.07143 -2.32491 32466 ft 464 kts 162°
2026-05-06 20:20 53.04071 -2.30823 31717 ft 465 kts 158°
2026-05-06 20:21 53.01156 -2.28471 30979 ft 465 kts 148°
2026-05-06 20:21 52.98423 -2.25608 30196 ft 466 kts 147°
2026-05-06 20:21 52.95698 -2.22732 29599 ft 461 kts 147°
2026-05-06 20:21 52.93004 -2.19902 29006 ft 456 kts 147°
2026-05-06 20:22 52.90339 -2.17111 28515 ft 451 kts 147°
2026-05-06 20:22 52.87721 -2.14377 28233 ft 451 kts 147°
2026-05-06 20:22 52.85034 -2.11579 27965 ft 449 kts 148°
2026-05-06 20:22 52.82433 -2.08874 27661 ft 446 kts 148°
2026-05-06 20:23 52.79820 -2.06159 27083 ft 441 kts 148°
2026-05-06 20:23 52.77229 -2.03472 26516 ft 437 kts 148°
2026-05-06 20:23 52.74665 -2.00813 25951 ft 433 kts 148°
2026-05-06 20:23 52.72130 -1.98182 25416 ft 429 kts 149°
2026-05-06 20:24 52.69615 -1.95579 24870 ft 425 kts 149°
2026-05-06 20:24 52.67124 -1.93006 24331 ft 421 kts 149°
2026-05-06 20:24 52.64649 -1.90452 23807 ft 418 kts 149°
2026-05-06 20:24 52.62193 -1.87917 23229 ft 415 kts 149°
2026-05-06 20:25 52.59754 -1.85406 22667 ft 412 kts 149°
2026-05-06 20:25 52.57334 -1.82917 22121 ft 408 kts 149°
2026-05-06 20:25 52.54937 -1.80453 21595 ft 405 kts 149°
2026-05-06 20:25 52.52558 -1.78013 21088 ft 401 kts 149°
2026-05-06 20:26 52.50201 -1.75604 20720 ft 394 kts 149°
2026-05-06 20:26 52.47908 -1.73262 20595 ft 381 kts 149°
2026-05-06 20:26 52.45693 -1.70996 20358 ft 371 kts 149°
2026-05-06 20:26 52.43512 -1.68769 19962 ft 367 kts 149°
2026-05-06 20:27 52.41354 -1.66572 19535 ft 364 kts 149°
2026-05-06 20:27 52.39212 -1.64395 19104 ft 361 kts 149°
2026-05-06 20:27 52.37082 -1.62234 18683 ft 359 kts 149°
2026-05-06 20:27 52.34969 -1.60090 18251 ft 356 kts 149°
2026-05-06 20:28 52.32869 -1.57958 17759 ft 354 kts 149°
2026-05-06 20:28 52.30804 -1.55869 17294 ft 352 kts 149°
2026-05-06 20:28 52.28725 -1.53770 16827 ft 350 kts 149°
2026-05-06 20:28 52.26660 -1.51688 16353 ft 348 kts 149°
2026-05-06 20:29 52.24606 -1.49613 15915 ft 346 kts 149°
2026-05-06 20:29 52.22568 -1.47552 15485 ft 344 kts 148°
2026-05-06 20:29 52.20656 -1.45237 15116 ft 341 kts 139°
2026-05-06 20:29 52.18858 -1.42696 15038 ft 343 kts 139°
2026-05-06 20:30 52.17050 -1.40163 14950 ft 342 kts 140°
2026-05-06 20:30 52.13454 -1.35149 14104 ft 339 kts 140°
2026-05-06 20:30 52.11666 -1.32664 13684 ft 337 kts 140°
2026-05-06 20:31 52.09884 -1.30195 13257 ft 335 kts 140°
2026-05-06 20:31 52.08111 -1.27739 12837 ft 333 kts 140°
2026-05-06 20:31 52.06354 -1.25303 12425 ft 331 kts 140°
2026-05-06 20:31 52.04632 -1.22916 12026 ft 329 kts 140°
2026-05-06 20:32 52.02894 -1.20507 11625 ft 327 kts 140°
2026-05-06 20:32 52.01170 -1.18117 11236 ft 325 kts 140°
2026-05-06 20:32 51.99453 -1.15739 10852 ft 324 kts 140°
2026-05-06 20:32 51.97746 -1.13380 10474 ft 322 kts 140°
2026-05-06 20:33 51.96045 -1.11031 10123 ft 320 kts 140°
2026-05-06 20:33 51.94372 -1.08727 9972 ft 310 kts 140°
2026-05-06 20:33 51.92767 -1.06514 9838 ft 294 kts 140°
2026-05-06 20:33 51.91260 -1.04439 9700 ft 276 kts 140°
2026-05-06 20:34 51.89816 -1.02458 9566 ft 268 kts 140°
2026-05-06 20:34 51.88411 -1.00527 9389 ft 262 kts 139°
2026-05-06 20:34 51.87026 -0.98621 9124 ft 260 kts 139°
2026-05-06 20:34 51.85702 -0.96645 8858 ft 257 kts 130°
2026-05-06 20:35 51.84694 -0.94292 8620 ft 254 kts 116°
2026-05-06 20:35 51.83916 -0.91737 8342 ft 252 kts 115°
2026-05-06 20:35 51.83145 -0.89204 8096 ft 250 kts 115°
2026-05-06 20:35 51.82389 -0.86733 8016 ft 248 kts 116°
2026-05-06 20:36 51.81619 -0.84226 8029 ft 249 kts 116°
2026-05-06 20:36 51.80848 -0.81718 8025 ft 249 kts 116°
2026-05-06 20:36 51.80079 -0.79209 8030 ft 251 kts 115°
2026-05-06 20:36 51.79113 -0.76757 7845 ft 267 kts 134°
2026-05-06 20:37 51.77531 -0.75082 7258 ft 279 kts 157°
2026-05-06 20:37 51.75708 -0.73976 6898 ft 280 kts 161°
2026-05-06 20:37 51.74481 -0.73286 6790 ft 271 kts 161°
2026-05-06 20:37 51.72773 -0.72337 6658 ft 254 kts 161°
2026-05-06 20:38 51.71143 -0.71435 6437 ft 245 kts 161°
2026-05-06 20:38 51.69533 -0.70549 6150 ft 244 kts 161°
2026-05-06 20:38 51.67937 -0.69674 6023 ft 241 kts 161°
2026-05-06 20:38 51.66339 -0.68797 6028 ft 244 kts 161°
2026-05-06 20:39 51.64733 -0.67917 5977 ft 243 kts 161°
2026-05-06 20:39 51.63142 -0.67047 5721 ft 240 kts 161°
2026-05-06 20:39 51.61502 -0.66335 5155 ft 250 kts 178°
2026-05-06 20:39 51.59847 -0.66904 5008 ft 241 kts 210°
2026-05-06 20:40 51.58689 -0.68721 5007 ft 234 kts 243°
2026-05-06 20:40 51.58105 -0.71159 4922 ft 233 kts 254°
2026-05-06 20:40 51.57658 -0.73672 4605 ft 233 kts 256°
2026-05-06 20:40 51.57220 -0.76175 4285 ft 233 kts 256°
2026-05-06 20:41 51.56778 -0.78671 4041 ft 229 kts 256°
2026-05-06 20:41 51.56360 -0.81070 4004 ft 216 kts 257°
2026-05-06 20:41 51.55960 -0.83314 4003 ft 201 kts 256°
2026-05-06 20:41 51.55566 -0.85405 4001 ft 194 kts 248°
2026-05-06 20:42 51.54695 -0.86991 4010 ft 196 kts 207°
2026-05-06 20:42 51.53386 -0.87533 4005 ft 196 kts 185°
2026-05-06 20:42 51.52017 -0.87653 3876 ft 196 kts 181°
2026-05-06 20:42 51.50657 -0.87602 3635 ft 195 kts 164°
2026-05-06 20:43 51.49533 -0.86519 3401 ft 190 kts 130°
2026-05-06 20:43 51.48721 -0.84848 3138 ft 190 kts 123°
2026-05-06 20:43 51.47992 -0.83097 3014 ft 189 kts 117°
2026-05-06 20:43 51.47585 -0.81128 3003 ft 186 kts 91°
2026-05-06 20:44 51.47581 -0.79064 3004 ft 186 kts 86°
2026-05-06 20:44 51.47596 -0.76996 3005 ft 185 kts 86°
2026-05-06 20:44 51.47610 -0.74933 3033 ft 184 kts 86°
2026-05-06 20:44 51.47622 -0.72935 3005 ft 176 kts 87°
2026-05-06 20:45 51.47634 -0.71019 2863 ft 168 kts 86°
2026-05-06 20:45 51.47645 -0.69156 2669 ft 165 kts 86°
2026-05-06 20:45 51.47655 -0.67363 2462 ft 158 kts 86°
2026-05-06 20:45 51.47664 -0.65657 2278 ft 152 kts 86°
2026-05-06 20:46 51.47674 -0.63954 2055 ft 152 kts 86°
2026-05-06 20:46 51.47683 -0.62260 1842 ft 151 kts 86°
2026-05-06 20:46 51.47693 -0.60563 1632 ft 151 kts 86°
2026-05-06 20:46 51.47700 -0.58941 1421 ft 142 kts 86°
2026-05-06 20:47 51.47708 -0.57365 1230 ft 140 kts 86°
2026-05-06 20:47 51.47715 -0.55804 1035 ft 139 kts 86°
2026-05-06 20:47 51.47724 -0.54255 815 ft 139 kts 86°
2026-05-06 20:47 51.47727 -0.52722 649 ft 138 kts 87°
2026-05-06 20:48 51.47739 -0.51197 468 ft 137 kts 87°
2026-05-06 20:48 51.47740 -0.49676 280 ft 136 kts 87°
2026-05-06 20:48 51.47749 -0.48171 98 ft 131 kts 87°
2026-05-06 20:48 51.47754 -0.46937 95 ft 88 kts 90°
2026-05-06 20:49 51.47758 -0.46167 92 ft 47 kts 90°
2026-05-06 20:49 51.47760 -0.45714 86 ft 39 kts 89°
2026-05-06 20:49 51.47711 -0.45480 88 ft 9 kts 160°
2026-05-06 20:49 51.47639 -0.45469 88 ft 11 kts 179°
2026-05-06 20:50 51.47597 -0.45558 88 ft 12 kts 272°
2026-05-06 20:50 51.47595 -0.45704 91 ft 14 kts 260°
2026-05-06 20:50 51.47591 -0.45875 88 ft 16 kts 269°
2026-05-06 20:50 51.47589 -0.46071 89 ft 19 kts 270°
2026-05-06 20:51 51.47590 -0.46292 92 ft 22 kts 271°
2026-05-06 20:51 51.47592 -0.46548 93 ft 24 kts 270°
2026-05-06 20:51 51.47588 -0.46828 94 ft 27 kts 265°
2026-05-06 20:51 51.47582 -0.47141 92 ft 29 kts 270°
2026-05-06 20:52 51.47582 -0.47429 90 ft 19 kts 269°
2026-05-06 20:52 51.47582 -0.47662 89 ft 22 kts 269°
2026-05-06 20:52 51.47579 -0.47918 90 ft 18 kts 269°
2026-05-06 20:52 51.47579 -0.48076 94 ft 14 kts 271°
2026-05-06 20:53 51.47579 -0.48258 94 ft 17 kts 270°
2026-05-06 20:53 51.47568 -0.48454 93 ft 16 kts 235°
2026-05-06 20:53 51.47485 -0.48476 91 ft 13 kts 178°
2026-05-06 20:53 51.47423 -0.48473 89 ft 9 kts 179°
2026-05-06 20:54 51.47399 -0.48515 91 ft 4 kts 272°
2026-05-06 20:54 51.47399 -0.48574 87 ft 6 kts 270°
2026-05-06 20:54 51.47399 -0.48593 88 ft 0 kts 270°